#timestamp,LO_Frequency,Hit,StdDev 
1572141615.8,286046990.9,N
1572141635.7,286046988.5,N
1572141655.5,286046985.8,N
1572141675.3,286046985.0,N
1572141695.2,286046987.6,N
1572141715.0,286046986.2,N
1572141715.9,286046986.2,N
1572141735.8,286046983.4,N
1572141755.6,286046980.3,Y
1572141775.4,286046994.7,P
1572141795.3,286046992.6,N
1572141815.1,286046993.0,N
1572141835.8,286046996.2,N
1572141855.7,286046993.4,N
1572141875.5,286046991.7,Y
1572141895.4,286047004.4,P
1572141915.2,286047005.1,N
1572141935.0,286047007.6,N
1572141935.9,286047007.6,N
1572141955.8,286047007.5,N
1572141975.6,286047000.0,N
1572141995.5,286046995.4,N
1572142015.3,286046997.4,N
1572142035.1,286046997.0,N
1572142055.9,286046995.5,N
1572142075.7,286046997.2,N
1572142095.5,286047002.5,N
1572142115.4,286047003.1,N
1572142135.2,286047000.6,N
1572142155.0,286047000.2,N
1572142156.0,286047000.2,N
1572142175.8,286047006.8,N
1572142195.6,286047007.1,N
1572142215.5,286047006.3,N
1572142235.3,286047006.7,N
1572142255.1,286047008.7,N
1572142275.9,286047008.5,N
1572142295.7,286047008.3,N
1572142315.6,286047009.1,N
1572142335.4,286047008.1,N
1572142355.2,286047008.6,N
1572142375.1,286047009.4,N
1572142376.0,286047009.4,N
1572142395.8,286047009.3,N
1572142415.6,286047010.4,N
1572142435.5,286047005.0,N
1572142455.3,286047001.6,N
1572142475.2,286047003.7,N
1572142495.9,286047003.7,N
1572142515.7,286047005.6,N
1572142535.6,286047001.5,N
1572142555.4,286046996.7,N
1572142575.3,286046996.8,N
1572142595.1,286047002.4,N
1572142596.0,286047002.4,N
1572142615.8,286047007.4,N
1572142635.7,286047000.2,N
1572142655.5,286046996.6,N
1572142675.3,286046997.3,N
1572142695.2,286046999.0,N
1572142715.0,286047002.8,N
1572142715.9,286047002.8,N
1572142735.8,286047001.8,N
1572142755.6,286046996.6,N
1572142775.4,286046993.7,N
1572142795.3,286046994.5,N
1572142815.1,286046996.0,N
1572142835.8,286046996.0,N
1572142855.7,286046995.7,N
1572142875.5,286046995.0,N
1572142895.4,286046995.2,N
1572142915.2,286046998.7,N
1572142935.0,286047003.0,N
1572142935.9,286047003.0,N
1572142955.8,286047008.5,N
1572142975.6,286047004.7,N
1572142995.4,286046998.2,N
1572143015.3,286046998.6,N
1572143035.1,286047005.6,N
1572143055.9,286047008.8,N
1572143075.7,286047005.2,N
1572143095.5,286047004.8,N
1572143115.4,286047004.9,N
1572143135.2,286047008.9,N
1572143155.0,286047009.8,N
1572143156.0,286047009.8,N
1572143175.8,286047007.1,N
1572143195.6,286047003.3,N
1572143215.5,286046998.6,N
1572143235.3,286046997.7,N
1572143255.1,286046996.5,N
1572143275.9,286047000.5,N
1572143295.7,286046999.9,N
1572143315.6,286047003.9,N
1572143335.4,286047003.2,N
1572143355.2,286046998.7,N
1572143375.1,286046998.2,N
1572143376.0,286046998.2,N
1572143395.8,286047002.1,N
1572143415.6,286047003.1,N
1572143435.5,286047004.5,N
1572143455.3,286047007.4,N
1572143475.1,286047002.9,N
1572143495.9,286046998.6,N
1572143515.7,286046998.0,N
1572143535.6,286046993.4,N
1572143555.4,286046994.5,N
1572143575.2,286046993.9,N
1572143595.1,286046994.2,N
1572143596.0,286046994.2,N
1572143615.8,286046993.9,N
1572143635.6,286046994.7,N
1572143655.5,286046994.3,N
1572143675.3,286046995.9,N
1572143695.2,286047000.0,N
1572143715.9,286047003.7,N
1572143735.7,286047001.4,N
1572143755.6,286046997.4,N
1572143775.4,286046996.2,N
1572143795.2,286046996.3,N
1572143815.1,286046993.7,N
1572143816.0,286046993.7,N
1572143835.8,286046997.3,N
1572143855.7,286047003.9,N
1572143875.5,286047009.1,N
1572143895.3,286047010.1,N
1572143915.2,286047010.6,N
1572143935.0,286047003.7,N
1572143935.9,286047003.7,N
1572143955.7,286046999.8,N
1572143975.6,286047005.2,N
1572143995.4,286047008.6,N
1572144015.3,286047009.7,N
1572144035.1,286047011.2,N
1572144036.0,286047011.2,N
1572144055.8,286047008.5,N
1572144075.7,286047003.2,N
1572144095.5,286047001.3,N
1572144115.3,286047003.3,N
1572144135.2,286047006.3,N
1572144155.0,286047006.0,N
1572144155.9,286047006.0,N
1572144175.8,286047000.7,N
1572144195.6,286046997.5,N
1572144215.4,286046995.3,N
1572144235.3,286046997.8,N
1572144255.1,286047002.1,N
1572144275.8,286047003.4,N
1572144295.7,286047003.8,N
1572144315.5,286046998.7,N
1572144335.3,286046999.8,N
1572144355.2,286047002.9,N
1572144375.0,286047008.2,N
1572144375.9,286047008.2,N
1572144395.8,286047008.2,N
1572144415.6,286047009.1,N
1572144435.4,286047002.3,N
1572144455.3,286047003.0,N
1572144475.1,286046998.2,N
1572144495.9,286047002.6,N
1572144515.7,286047007.1,N
1572144535.5,286047011.0,N
1572144555.4,286047015.1,Y
1572144575.2,286047005.7,P
1572144595.0,286047004.3,P
1572144595.9,286047004.3,P
1572144615.8,286047007.2,Y
1572144635.6,286046998.1,P
1572144655.5,286047002.7,N
1572144675.3,286047003.5,N
1572144695.1,286047009.0,Y
1572144715.9,286047000.5,P
1572144735.7,286046998.2,N
1572144755.5,286047000.0,N
1572144775.4,286047000.2,N
1572144795.2,286047002.5,N
1572144815.1,286046996.9,N
1572144816.0,286046996.9,N
1572144835.8,286046994.9,N
1572144855.6,286046997.4,N
1572144875.5,286046991.9,Y
1572144895.3,286046993.3,P
1572144915.2,286046996.9,N
1572144935.9,286046997.3,N
1572144955.7,286046995.3,N
1572144975.6,286046995.4,N
1572144995.4,286047000.4,N
1572145015.2,286047000.2,N
1572145035.1,286047002.7,N
1572145036.0,286047002.7,N
1572145055.8,286047003.2,N
1572145075.7,286047006.7,N
1572145095.5,286047006.5,N
1572145115.3,286047003.1,N
1572145135.2,286047006.0,N
1572145155.9,286047009.1,N
1572145175.7,286047015.3,Y
1572145195.6,286047018.5,P
